Flag for Germany Weather past 2 weeks in Oelde, North Rhine-Westphalia, Germany

Now
39 °F

Partly cloudy.


Feels Like: 32 °F
Forecast: 37 / 44 °F
Wind: 12 mph from West

Location: Paderborn / Lippstadt

Current Time: Dec 20, 2014 at 7:28:08 PM

Latest Report: Dec 20, 2014 at 6:50 PM


Visibility: N/A

Pressure: 30.07 "Hg

Humidity: 87%

Dew point: 36 °F

Location of OeldeLocation

Historic Weather in Oelde — Graph

°F

Oelde temperature yesterday

Maximum temperature yesterday: 52 °F (at 12:20 AM)
Minimum temperature yesterday: 41 °F (at 5:50 PM)
Average temperature yesterday: 47 °F

Past Weeks' High & Low Weather Summary

 TemperatureHumidityPressure
High54 °F (Dec 18, 5:50 PM)100% (Dec 6, 7:20 AM)30.36 "Hg (Dec 6, 7:20 AM)
Low27 °F (Dec 15, 12:50 AM)56% (Dec 10, 5:20 AM)29.39 "Hg (Dec 12, 2:50 PM)
Average39 °F86%29.92 "Hg
* Reported Dec 5 6:20 PM — Dec 20 6:20 PM, Oelde, Weather by CustomWeather, © 2014

Note: Actual official high and low records may vary slightly from our data, if they occured in-between our weather recording intervals... More about our weather records

Advertising

Oelde weather history for previous 24 hours

 ConditionsComfort  
Time TempWeatherWind HumidityBarometerVisibility
6:20 PM
Dec 20
39 °FLight rain. Partly cloudy.13 mph87%30.07 "HgN/A
5:50 PM39 °FLight rain. Partly cloudy.17 mph93%30.04 "HgN/A
5:20 PM41 °FPartly cloudy.14 mph87%30.01 "HgN/A
4:50 PM39 °FPassing clouds.15 mph93%29.98 "HgN/A
4:20 PM39 °FLight rain. Partly cloudy.16 mph100%29.98 "HgN/A
3:50 PM41 °FLight rain. Partly sunny.18 mph87%29.98 "HgN/A
3:20 PM41 °FPartly sunny.18 mph81%29.95 "HgN/A
2:50 PM39 °FLight rain. Partly sunny.21 mph93%29.98 "HgN/A
2:20 PM39 °FLight rain. Partly sunny.17 mph87%29.98 "Hg6 mi
1:50 PM39 °FLight rain. Broken clouds.21 mph87%29.98 "Hg5 mi
1:20 PM41 °FLight rain. Partly sunny.18 mph81%29.98 "HgN/A
12:50 PM41 °FLight rain. Partly sunny.20 mph81%29.98 "HgN/A
12:20 PM41 °FLight rain. Partly sunny.18 mph81%30.01 "HgN/A
11:50 AM41 °FPartly sunny.16 mph76%30.01 "HgN/A
11:20 AM41 °FPartly sunny.20 mph76%30.04 "HgN/A
10:50 AM41 °FPartly sunny.20 mph76%30.04 "HgN/A
10:20 AM41 °FPartly sunny.17 mph76%30.04 "HgN/A
9:50 AM41 °FPartly sunny.21 mph76%30.04 "HgN/A
9:20 AM41 °FPartly sunny.22 mph76%30.04 "HgN/A
8:50 AM41 °FPartly sunny.18 mph76%30.04 "HgN/A
8:20 AM41 °FPassing clouds.21 mph76%30.04 "HgN/A
7:50 AM41 °FPassing clouds.17 mph76%30.07 "HgN/A
7:20 AM41 °FPassing clouds.18 mph76%30.07 "HgN/A
6:50 AM41 °FPassing clouds.18 mph76%30.07 "HgN/A
6:20 AM41 °FPassing clouds.18 mph76%30.07 "HgN/A
5:50 AM41 °FPassing clouds.18 mph76%30.07 "HgN/A
5:20 AM39 °FPassing clouds.16 mph81%30.07 "HgN/A
4:50 AM41 °FPassing clouds.20 mph76%30.07 "HgN/A
4:20 AM41 °FPassing clouds.15 mph76%30.07 "HgN/A
3:50 AM41 °FPassing clouds.17 mph76%30.07 "HgN/A
3:20 AM39 °FPassing clouds.17 mph81%30.07 "HgN/A
2:50 AM39 °FClear.17 mph81%30.07 "Hg10 mi
2:20 AM39 °FPassing clouds.17 mph81%30.07 "HgN/A
1:50 AM41 °FPassing clouds.17 mph76%30.07 "HgN/A
1:20 AM41 °FPassing clouds.17 mph76%30.04 "HgN/A
12:50 AM41 °FPassing clouds.15 mph76%30.04 "HgN/A
12:20 AM39 °FPassing clouds.16 mph81%30.04 "HgN/A
11:50 PM
Dec 19
41 °FPassing clouds.16 mph76%30.04 "HgN/A
11:20 PM41 °FPassing clouds.16 mph76%30.04 "HgN/A
10:50 PM41 °FPassing clouds.15 mph81%30.01 "HgN/A
10:20 PM41 °FPassing clouds.15 mph81%30.01 "HgN/A
9:50 PM41 °FPassing clouds.13 mph81%30.01 "HgN/A
9:20 PM41 °FPartly cloudy.15 mph81%30.01 "HgN/A
8:50 PM41 °FPassing clouds.14 mph81%29.98 "HgN/A
8:20 PM41 °FPassing clouds.13 mph81%29.98 "HgN/A
7:50 PM41 °FPassing clouds.15 mph81%29.95 "HgN/A
7:20 PM41 °FPassing clouds.10 mph87%29.95 "HgN/A
Weather by CustomWeather, © 2014

See weather overviewHow to use our weather pages